Location: Bats
(43.6587°N, 0.4584°W)
Time: 23:43:14
(UTC+00:00)

DNEPR-1 R/B - Visible Passes

Search period start: 18 April 2026 00:00
Search period end: 28 April 2026 00:00
Orbit: 583 x 1330 km, 64.6° (Epoch: 18 April)

Date Brightness Start Highest point End Pass type
(mag) Time Alt. Az. Time Alt. Az. Time Alt. Az.
18 Apr 7.3 01:33:23 10° NNE 01:34:26 11° NNE 01:35:33 10° NE visible
18 Apr 5.7 03:18:05 10° NNW 03:23:06 40° NE 03:29:05 10° ESE visible
18 Apr 5.0 20:22:19 10° WSW 20:26:16 39° NW 20:30:23 10° NNE visible
19 Apr 7.0 01:51:40 10° N 01:54:48 16° NE 01:58:14 10° ENE visible
19 Apr 4.8 03:37:33 10° NNW 03:42:57 65° NE 03:49:32 10° SE visible
19 Apr 6.1 20:42:54 10° W 20:46:14 22° NW 20:49:43 10° NNE visible
20 Apr 6.5 02:10:44 10° NNW 02:14:58 24° NE 02:19:50 10° E visible
20 Apr 4.3 03:57:10 10° NW 04:02:42 76° WSW 04:09:27 10° SSE visible
20 Apr 3.5 19:14:10 10° SW 19:18:23 86° NW 19:22:43 10° NE visible
20 Apr 6.7 21:04:08 10° WNW 21:06:24 14° NNW 21:08:45 10° N visible
21 Apr 7.3 00:45:59 10° NNE 00:46:14 10° NNE 00:46:30 10° NNE visible
21 Apr 5.7 02:30:01 10° NNW 02:34:58 37° NE 02:40:52 10° ESE visible
21 Apr 4.7 04:17:01 10° NW 04:22:23 45° WSW 04:28:49 10° S visible
21 Apr 4.9 19:34:08 10° WSW 19:38:08 42° NW 19:42:18 10° NNE visible
22 Apr 6.9 01:03:39 10° N 01:06:36 15° NNE 01:09:49 10° ENE visible
22 Apr 4.8 02:49:27 10° NNW 02:54:50 61° NE 03:01:23 10° SE visible
22 Apr 5.3 04:37:14 10° WNW 04:41:59 26° WSW 04:47:28 10° SSW visible
22 Apr 6.1 19:54:37 10° W 19:58:04 24° NW 20:01:41 10° NNE visible
23 Apr 6.4 01:22:41 10° NNW 01:26:48 22° NE 01:31:31 10° E visible
23 Apr 4.3 03:09:03 10° NW 03:14:36 82° WSW 03:21:23 10° SSE visible
23 Apr 6.6 20:15:43 10° WNW 20:18:12 15° NNW 20:20:48 10° N visible
24 Apr 5.8 01:41:56 10° NNW 01:46:50 35° NE 01:52:38 10° ESE visible
24 Apr 4.6 03:28:52 10° NW 03:34:17 49° WSW 03:40:50 10° S visible
25 Apr 6.9 00:15:39 10° N 00:18:25 14° NNE 00:21:24 10° ENE visible
25 Apr 4.9 02:01:22 10° NNW 02:06:43 56° NE 02:13:13 10° SE visible
25 Apr 5.2 03:49:00 10° WNW 03:53:55 28° WSW 03:59:37 10° S visible
26 Apr 6.4 00:34:38 10° N 00:38:38 21° NE 00:43:12 10° E visible
26 Apr 4.3 02:20:56 10° NW 02:26:29 88° SW 02:33:18 10° SSE visible
26 Apr 5.8 04:09:52 10° WNW 04:13:25 16° WSW 04:17:20 10° SW visible
26 Apr 6.5 19:27:20 10° WNW 19:30:01 16° NW 19:32:48 10° N visible
27 Apr 5.8 00:53:53 10° NNW 00:58:41 33° NE 01:04:23 10° ESE visible
27 Apr 4.5 02:40:43 10° NW 02:46:12 53° WSW 02:52:50 10° SSE visible
27 Apr 6.9 19:49:28 10° NW 19:50:19 10° NNW 19:51:11 10° NNW visible
27 Apr 6.8 23:27:39 10° N 23:30:13 13° NNE 23:32:58 10° ENE visible
